This is the latest recevied weather packets stored in our database for station/object N5SRF. If no packets are shown the sender has not sent any weather packets the latest 10 day(s).
| Time | Temp. | Humidity | Pressure | Rain* | Wind** | Luminosity | Snow |
|---|---|---|---|---|---|---|---|
| 1787963071 | 26.67° C | 78% | 1018.3 hPa | 0 mm | - | 15 W/m² | - |
| 1787962770 | 27.22° C | 78% | 1018.3 hPa | 0 mm | - | 19 W/m² | - |
| 1787962469 | 27.22° C | 78% | 1018.4 hPa | 0 mm | - | 22 W/m² | - |
| 1787962168 | 27.22° C | 78% | 1018.4 hPa | 0 mm | - | 26 W/m² | - |
| 1787961863 | 27.22° C | 78% | 1018.7 hPa | 0 mm | - | 29 W/m² | - |
| 1787961561 | 27.22° C | 78% | 1018.5 hPa | 0 mm | - | 33 W/m² | - |
| 1787961256 | 27.22° C | 78% | 1018.9 hPa | 0 mm | - | 37 W/m² | - |
| 1787960955 | 27.22° C | 78% | 1018.9 hPa | 0 mm | - | 40 W/m² | - |
| 1787960650 | 27.22° C | 78% | 1018.9 hPa | 0 mm | - | 41 W/m² | - |
| 1787960349 | 27.22° C | 78% | 1019.2 hPa | 0 mm | - | 42 W/m² | - |
| 1787960043 | 27.22° C | 78% | 1019.1 hPa | 0 mm | - | 45 W/m² | - |
| 1787959732 | 27.22° C | 77% | 1019.1 hPa | 0 mm | - | 47 W/m² | - |
| 1787959428 | 27.22° C | 77% | 1019.6 hPa | 0 mm | - | 50 W/m² | - |
| 1787959122 | 27.22° C | 76% | 1019.1 hPa | 0 mm | - | 54 W/m² | - |
| 1787958817 | 27.78° C | 76% | 1019 hPa | 0 mm | - | 57 W/m² | - |
| 1787958512 | 27.78° C | 75% | 1019.1 hPa | 0 mm | - | 60 W/m² | - |
| 1787958203 | 28.33° C | 74% | 1019.1 hPa | 0 mm | - | 63 W/m² | - |
| 1787957902 | 28.89° C | 72% | 1019.1 hPa | 0 mm | - | 65 W/m² | - |
| 1787957602 | 28.89° C | 70% | 1018.9 hPa | 0 mm | - | 66 W/m² | - |
| 1787957292 | 28.89° C | 69% | 1019 hPa | 0 mm | - | 67 W/m² | - |
| 1787956992 | 28.89° C | 70% | 1018.7 hPa | 0 mm | - | 68 W/m² | - |
| 1787956691 | 28.33° C | 71% | 1019 hPa | 0 mm | - | 71 W/m² | - |
| 1787956387 | 28.33° C | 72% | 1018.7 hPa | 0 mm | - | 73 W/m² | - |
| 1787956081 | 28.33° C | 73% | 1018.6 hPa | 0 mm | - | 73 W/m² | - |
| 1787955776 | 28.33° C | 74% | 1018.5 hPa | 0 mm | - | 72 W/m² | - |
* Rain latest hour (hover to see other rain measurements)
** Current wind speed in m/s (hover to see current wind gust speed)